Home > Weather > Ebebiyín > Past weeks

Flag for Equatorial Guinea Weather for the Past 2 Weeks in Ebebiyín, Equatorial Guinea

Now
70 °F

Thunderstorms. Passing clouds.


Feels Like: 70 °F
Forecast: 71 / 86 °F
Wind: 3 mph from South

Location: Yaounde Airport

Current Time: May 3, 2016 at 11:37:35 PM

Latest Report: May 3, 2016 at 10:00 PM


Visibility: N/A

Pressure: 30.04 "Hg (28.13 "Hg at 564m altitude)

Humidity: 94%

Dew Point: 68 °F

Location of EbebiyínLocation

Historic Weather in Ebebiyín — Graph

°F

Ebebiyín Temperature Yesterday

Maximum temperature yesterday: 86 °F (at 2:00 PM)
Minimum temperature yesterday: 70 °F (at 5:00 AM)
Average temperature yesterday: 76 °F

High & Low Weather Summary for the Past Weeks

 TemperatureHumidityPressure
High91 °F (Apr 22, 3:00 PM)100% (Apr 19, 3:00 AM)30.12 "Hg (Apr 19, 3:00 AM)
Low68 °F (Apr 19, 2:00 AM)46% (Apr 28, 5:00 PM)29.86 "Hg (Apr 23, 4:00 PM)
Average77 °F83%29.97 "Hg
* Reported Apr 18 10:00 PM — May 3 10:00 PM, Ebebiyín, Weather by CustomWeather, © 2016

Note: Actual official high and low records may vary slightly from our data, if they occured in-between our weather recording intervals... More about our weather records

Advertising

Ebebiyín Weather History for the Previous 24 Hours

Scroll right to see more
 ConditionsComfort  
Time TempWeatherWind HumidityBarometerVisibility
10:00 PM
Tue, May 3
70 °FThunderstorms. Passing clouds.3 mph94%30.04 "HgN/A
9:00 PM70 °FThunderstorms. Passing clouds.3 mph94%30.04 "HgN/A
8:00 PM73 °FThunderstorms. Partly cloudy.8 mph89%30.04 "Hg4 mi
7:00 PM75 °FThunderstorms. Partly cloudy.5 mph89%29.98 "HgN/A
6:00 PM77 °FThunderstorms. Broken clouds.5 mph79%29.95 "HgN/A
5:00 PM77 °FThunderstorms. Broken clouds.8 mph79%29.89 "HgN/A
4:00 PM81 °FThunderstorms. Broken clouds.8 mph70%29.92 "HgN/A
3:00 PM86 °FThunderstorms. Broken clouds.12 mph62%29.89 "HgN/A
2:00 PM91 °FThunderstorms. Partly sunny.No wind49%29.92 "HgN/A
1:00 PM88 °FPartly sunny.3 mph59%29.98 "HgN/A
11:00 AM84 °FScattered clouds.3 mph66%30.04 "HgN/A
10:00 AM81 °FScattered clouds.3 mph74%30.07 "HgN/A
9:00 AM77 °FPartly sunny.2 mph83%30.07 "Hg5 mi
8:00 AM72 °FPartly sunny.5 mph100%30.07 "Hg4 mi
7:00 AM72 °FFog.5 mph94%30.04 "Hg1 mi
6:00 AM72 °FFog.2 mph94%30.01 "Hg1 mi
4:00 AM72 °FPartly cloudy.2 mph100%29.98 "Hg4 mi
3:00 AM72 °FPartly cloudy.3 mph94%29.95 "Hg4 mi
2:00 AM72 °FFog.3 mph100%29.95 "Hg1 mi
12:00 AM72 °FClear.No wind94%29.98 "Hg5 mi
11:00 PM
Mon, May 2
72 °FClear.No wind94%30.01 "Hg5 mi
Weather by CustomWeather, © 2016

See weather overviewHow to use our weather pages